Location: Ç?ral? Körfezi
(36.3984°N, 30.4829°E)
Time: 06:25:38
(UTC+00:00)

Lacrosse 5 - Pass Details

Date: 04 August 2024
Orbit: 714 x 724 km, 57.0° (Epoch: 09 March)

Event Time Altitude Azimuth Distance (km) Brightness Sun altitude
Rises 19:06:23 0° 320° (NW) 3,119 6.6 -22.1°
Reaches altitude 10° 19:08:46 10° 323° (NW) 2,197 5.5 -22.5°
Maximum altitude 19:13:49 73° 48° (NE) 748 1.8 -23.2°
Enters shadow 19:14:31 63° 102° (ESE) 800 1.8 -23.3°
